When you browse on this site, cookies collect data to enhance your experience and personalize the content and advertising you see.
Visit our Privacy Policy to learn more. By continuing to use the site, you agree to this use of cookies and data.
  • în România
  • Lista ţărilor
  • Pe 7 zile
  • Temperatura apei
  • Hartă satelitară
  • Meteo pe hartă
  • Widget-uri
  • user-avatar
    Intrare

    Meteo pe oră la Al Hilla

    Astăzi, 19 Martie, Marţi

    Timp Temperatura Precipitaţii Vânt Presiune Umiditate
    00:00 +15°C° 0 mm 1 m/s 762 mmHg 25%
    01:00 +14°C° 0 mm 1 m/s 762 mmHg 26%
    02:00 +14°C° 0 mm 1 m/s 761 mmHg 27%
    03:00 +12°C° 0 mm 0 m/s 761 mmHg 28%
    04:00 +12°C° 0 mm 0 m/s 761 mmHg 28%
    05:00 +12°C° 0 mm 0 m/s 761 mmHg 28%
    06:00 +13°C° 0 mm 1 m/s 761 mmHg 29%
    07:00 +15°C° 0 mm 1 m/s 761 mmHg 25%
    08:00 +16°C° 0 mm 1 m/s 762 mmHg 22%
    09:00 +19°C° 0 mm 1 m/s 762 mmHg 19%
    10:00 +21°C° 0 mm 1 m/s 762 mmHg 18%
    11:00 +21°C° 0 mm 2 m/s 761 mmHg 18%
    12:00 +23°C° 0 mm 2 m/s 761 mmHg 17%
    13:00 +24°C° 0 mm 2 m/s 761 mmHg 18%
    14:00 +24°C° 0 mm 2 m/s 760 mmHg 19%
    15:00 +25°C° 0 mm 2 m/s 760 mmHg 20%
    16:00 +24°C° 0 mm 2 m/s 759 mmHg 21%
    17:00 +24°C° 0 mm 2 m/s 759 mmHg 23%
    18:00 +23°C° 0 mm 1 m/s 759 mmHg 24%
    19:00 +23°C° 0 mm 2 m/s 759 mmHg 25%
    20:00 +21°C° 0 mm 2 m/s 759 mmHg 26%
    21:00 +20°C° 0 mm 3 m/s 759 mmHg 27%
    22:00 +20°C° 0 mm 3 m/s 759 mmHg 28%
    23:00 +19°C° 0 mm 3 m/s 759 mmHg 29%

    Mâine, 20 Martie, Miercuri

    Timp Temperatura Precipitaţii Vânt Presiune Umiditate
    00:00 +18°C° 0 mm 3 m/s 759 mmHg 30%
    01:00 +18°C° 0 mm 3 m/s 759 mmHg 31%
    02:00 +17°C° 0 mm 3 m/s 758 mmHg 31%
    03:00 +17°C° 0 mm 3 m/s 758 mmHg 32%
    04:00 +16°C° 0 mm 2 m/s 758 mmHg 33%
    05:00 +16°C° 0 mm 2 m/s 758 mmHg 34%
    06:00 +16°C° 0 mm 1 m/s 759 mmHg 35%
    07:00 +18°C° 0 mm 1 m/s 759 mmHg 32%
    08:00 +20°C° 0 mm 1 m/s 759 mmHg 29%
    09:00 +22°C° 0 mm 1 m/s 759 mmHg 26%
    10:00 +23°C° 0 mm 1 m/s 759 mmHg 25%
    11:00 +24°C° 0 mm 1 m/s 759 mmHg 23%
    12:00 +25°C° 0 mm 1 m/s 759 mmHg 22%
    13:00 +26°C° 0 mm 1 m/s 758 mmHg 21%
    14:00 +26°C° 0 mm 2 m/s 757 mmHg 20%
    15:00 +27°C° 0 mm 2 m/s 757 mmHg 19%
    16:00 +26°C° 0 mm 2 m/s 757 mmHg 20%
    17:00 +26°C° 0 mm 3 m/s 757 mmHg 21%
    18:00 +25°C° 0 mm 3 m/s 757 mmHg 22%
    19:00 +23°C° 0 mm 4 m/s 757 mmHg 23%
    20:00 +22°C° 0 mm 5 m/s 757 mmHg 25%
    21:00 +21°C° 0 mm 5 m/s 758 mmHg 26%
    22:00 +20°C° 0 mm 5 m/s 758 mmHg 25%
    23:00 +19°C° 0 mm 4 m/s 758 mmHg 24%

    Poimâine, 21 Martie, Joi

    Timp Temperatura Precipitaţii Vânt Presiune Umiditate
    00:00 +19°C° 0 mm 4 m/s 758 mmHg 23%
    01:00 +18°C° 0 mm 4 m/s 758 mmHg 24%
    02:00 +17°C° 0 mm 3 m/s 758 mmHg 25%
    03:00 +17°C° 0 mm 3 m/s 757 mmHg 25%
    04:00 +16°C° 0 mm 3 m/s 758 mmHg 28%
    05:00 +16°C° 0 mm 3 m/s 758 mmHg 31%
    06:00 +14°C° 0 mm 3 m/s 758 mmHg 33%
    07:00 +17°C° 0 mm 3 m/s 758 mmHg 31%
    08:00 +18°C° 0 mm 3 m/s 759 mmHg 28%
    09:00 +20°C° 0 mm 3 m/s 759 mmHg 26%
    10:00 +21°C° 0 mm 3 m/s 759 mmHg 22%
    11:00 +22°C° 0 mm 3 m/s 759 mmHg 19%
    12:00 +25°C° 0 mm 4 m/s 759 mmHg 16%
    13:00 +25°C° 0 mm 4 m/s 758 mmHg 15%
    14:00 +26°C° 0 mm 4 m/s 758 mmHg 14%
    15:00 +26°C° 0 mm 5 m/s 757 mmHg 12%
    16:00 +26°C° 0 mm 4 m/s 757 mmHg 14%
    17:00 +25°C° 0 mm 4 m/s 757 mmHg 15%
    18:00 +23°C° 0 mm 4 m/s 757 mmHg 16%
    19:00 +22°C° 0 mm 4 m/s 758 mmHg 18%
    20:00 +21°C° 0 mm 4 m/s 758 mmHg 20%
    21:00 +20°C° 0 mm 3 m/s 758 mmHg 22%
    22:00 +20°C° 0 mm 3 m/s 758 mmHg 23%
    23:00 +19°C° 0 mm 3 m/s 758 mmHg 24%

    22 Martie, Vineri

    Timp Temperatura Precipitaţii Vânt Presiune Umiditate
    00:00 +18°C° 0 mm 3 m/s 758 mmHg 25%
    01:00 +18°C° 0 mm 2 m/s 758 mmHg 25%
    02:00 +17°C° 0 mm 2 m/s 758 mmHg 26%
    03:00 +17°C° 0 mm 2 m/s 758 mmHg 27%
    04:00 +17°C° 0 mm 2 m/s 758 mmHg 28%
    05:00 +16°C° 0 mm 2 m/s 758 mmHg 29%
    06:00 +16°C° 0 mm 2 m/s 758 mmHg 30%
    07:00 +18°C° 0 mm 2 m/s 758 mmHg 28%
    08:00 +19°C° 0 mm 2 m/s 759 mmHg 25%
    09:00 +21°C° 0 mm 2 m/s 760 mmHg 23%
    10:00 +23°C° 0 mm 2 m/s 759 mmHg 21%
    11:00 +25°C° 0 mm 3 m/s 759 mmHg 18%
    12:00 +26°C° 0 mm 3 m/s 759 mmHg 16%
    13:00 +27°C° 0 mm 3 m/s 758 mmHg 16%
    14:00 +27°C° 0 mm 3 m/s 758 mmHg 15%
    15:00 +28°C° 0 mm 4 m/s 757 mmHg 15%
    16:00 +27°C° 0 mm 4 m/s 757 mmHg 16%
    17:00 +27°C° 0 mm 3 m/s 757 mmHg 16%
    18:00 +26°C° 0 mm 3 m/s 757 mmHg 17%
    19:00 +25°C° 0 mm 3 m/s 757 mmHg 19%
    20:00 +24°C° 0 mm 3 m/s 758 mmHg 22%
    21:00 +22°C° 0 mm 3 m/s 758 mmHg 24%
    22:00 +22°C° 0 mm 3 m/s 758 mmHg 25%
    23:00 +21°C° 0 mm 3 m/s 758 mmHg 25%

    23 Martie, Sâmbătă

    Timp Temperatura Precipitaţii Vânt Presiune Umiditate
    00:00 +20°C° 0 mm 3 m/s 758 mmHg 26%
    01:00 +20°C° 0 mm 3 m/s 757 mmHg 27%
    02:00 +20°C° 0 mm 3 m/s 757 mmHg 27%
    03:00 +20°C° 0 mm 3 m/s 757 mmHg 27%
    04:00 +19°C° 0.2 mm 3 m/s 757 mmHg 32%
    05:00 +19°C° 0.2 mm 3 m/s 758 mmHg 36%
    06:00 +19°C° 0.2 mm 2 m/s 758 mmHg 40%
    07:00 +19°C° 0.2 mm 3 m/s 758 mmHg 41%
    08:00 +19°C° 0.2 mm 3 m/s 759 mmHg 42%
    09:00 +20°C° 0.2 mm 3 m/s 759 mmHg 43%
    10:00 +20°C° 0.3 mm 3 m/s 759 mmHg 45%
    11:00 +20°C° 0.3 mm 2 m/s 758 mmHg 46%
    12:00 +20°C° 0.3 mm 2 m/s 758 mmHg 48%
    13:00 +21°C° 0.1 mm 3 m/s 758 mmHg 45%
    14:00 +22°C° 0.1 mm 3 m/s 757 mmHg 42%
    15:00 +22°C° 0.1 mm 4 m/s 756 mmHg 40%
    16:00 +22°C° 0 mm 3 m/s 756 mmHg 41%
    17:00 +23°C° 0 mm 2 m/s 756 mmHg 43%
    18:00 +22°C° 0 mm 1 m/s 756 mmHg 45%
    19:00 +22°C° 0 mm 1 m/s 757 mmHg 46%
    20:00 +20°C° 0 mm 2 m/s 757 mmHg 47%
    21:00 +20°C° 0 mm 2 m/s 757 mmHg 48%
    22:00 +19°C° 0 mm 2 m/s 757 mmHg 49%
    23:00 +19°C° 0 mm 2 m/s 756 mmHg 50%

    24 Martie, Duminică

    Timp Temperatura Precipitaţii Vânt Presiune Umiditate
    00:00 +19°C° 0 mm 2 m/s 756 mmHg 52%
    01:00 +18°C° 0 mm 3 m/s 756 mmHg 45%
    02:00 +18°C° 0 mm 4 m/s 756 mmHg 38%
    03:00 +16°C° 0 mm 5 m/s 756 mmHg 31%
    04:00 +15°C° 0 mm 5 m/s 756 mmHg 30%
    05:00 +15°C° 0 mm 4 m/s 756 mmHg 29%
    06:00 +14°C° 0 mm 4 m/s 756 mmHg 29%
    07:00 +15°C° 0 mm 4 m/s 756 mmHg 26%
    08:00 +16°C° 0 mm 5 m/s 756 mmHg 24%
    09:00 +17°C° 0 mm 6 m/s 757 mmHg 22%
    10:00 +19°C° 0 mm 6 m/s 756 mmHg 19%
    11:00 +20°C° 0 mm 6 m/s 756 mmHg 17%
    12:00 +21°C° 0 mm 7 m/s 756 mmHg 15%
    13:00 +22°C° 0 mm 7 m/s 755 mmHg 14%
    14:00 +22°C° 0 mm 7 m/s 755 mmHg 14%
    15:00 +23°C° 0 mm 7 m/s 754 mmHg 14%
    16:00 +22°C° 0 mm 7 m/s 754 mmHg 15%
    17:00 +22°C° 0 mm 6 m/s 754 mmHg 17%
    18:00 +21°C° 0 mm 6 m/s 754 mmHg 18%
    19:00 +21°C° 0 mm 6 m/s 755 mmHg 22%
    20:00 +20°C° 0 mm 6 m/s 755 mmHg 25%
    21:00 +19°C° 0 mm 6 m/s 755 mmHg 29%
    22:00 +19°C° 0 mm 6 m/s 755 mmHg 28%
    23:00 +18°C° 0 mm 7 m/s 755 mmHg 27%
    Arată mai mult